AAL1017 KIAD-CYHZ

Flight info

Callsign AAL1017
Flight time 1h 43m
Altitude 37000
Route WOOLY2 SWANN DCT BROSS Q419 RBV Q22 FOXWD DCT BOS DCT TUSKY PEGGY5
Aircraft A319/M-SDE3FGHIRWY/LB1

Departure

Time 2026-05-06 19:26
Airport Washington Dulles International Airport (KIAD)

Arrival

Time 2026-05-06 21:09
Airport Halifax / Stanfield International Airport (CYHZ)
Time Latitude Longitude Altitude Speed Heading
2026-05-06 18:57 38.94835 -77.45432 293 ft 0 kts 12°
2026-05-06 19:14 38.94822 -77.45435 298 ft 2 kts 11°
2026-05-06 19:15 38.94806 -77.45439 295 ft 2 kts 11°
2026-05-06 19:15 38.94791 -77.45443 295 ft 2 kts 11°
2026-05-06 19:15 38.94776 -77.45447 297 ft 2 kts
2026-05-06 19:15 38.94760 -77.45447 296 ft 2 kts 334°
2026-05-06 19:16 38.94747 -77.45436 295 ft 2 kts 298°
2026-05-06 19:16 38.94742 -77.45417 297 ft 2 kts 265°
2026-05-06 19:16 38.94742 -77.45410 297 ft 0 kts 265°
2026-05-06 19:18 38.94742 -77.45411 297 ft 0 kts 265°
2026-05-06 19:18 38.94742 -77.45418 297 ft 1 kts 265°
2026-05-06 19:18 38.94740 -77.45440 293 ft 5 kts 262°
2026-05-06 19:18 38.94736 -77.45507 292 ft 8 kts 269°
2026-05-06 19:19 38.94747 -77.45584 295 ft 10 kts 307°
2026-05-06 19:19 38.94829 -77.45605 294 ft 13 kts
2026-05-06 19:19 38.94926 -77.45605 295 ft 15 kts
2026-05-06 19:19 38.95037 -77.45603 295 ft 16 kts
2026-05-06 19:20 38.95149 -77.45602 294 ft 16 kts
2026-05-06 19:20 38.95276 -77.45600 293 ft 20 kts
2026-05-06 19:20 38.95427 -77.45598 295 ft 22 kts
2026-05-06 19:20 38.95579 -77.45596 292 ft 22 kts
2026-05-06 19:21 38.95728 -77.45594 292 ft 22 kts
2026-05-06 19:21 38.95876 -77.45592 294 ft 21 kts
2026-05-06 19:21 38.96023 -77.45591 296 ft 21 kts
2026-05-06 19:21 38.96169 -77.45589 294 ft 21 kts
2026-05-06 19:22 38.96313 -77.45588 292 ft 21 kts
2026-05-06 19:22 38.96456 -77.45585 294 ft 20 kts
2026-05-06 19:22 38.96597 -77.45583 295 ft 20 kts
2026-05-06 19:22 38.96737 -77.45580 293 ft 20 kts
2026-05-06 19:23 38.96874 -77.45580 294 ft 18 kts
2026-05-06 19:23 38.96974 -77.45584 294 ft 11 kts 349°
2026-05-06 19:23 38.97009 -77.45660 292 ft 11 kts 266°
2026-05-06 19:23 38.97008 -77.45764 291 ft 13 kts 272°
2026-05-06 19:24 38.97009 -77.45806 290 ft 0 kts 272°
2026-05-06 19:24 38.97010 -77.45820 290 ft 3 kts 272°
2026-05-06 19:25 38.97011 -77.45868 288 ft 7 kts 272°
2026-05-06 19:25 38.96995 -77.45932 291 ft 8 kts 212°
2026-05-06 19:25 38.96930 -77.45934 287 ft 14 kts 181°
2026-05-06 19:25 38.96627 -77.45941 286 ft 80 kts 180°
2026-05-06 19:26 38.95860 -77.45951 291 ft 137 kts 181°
2026-05-06 19:26 38.94805 -77.45969 572 ft 159 kts 181°
2026-05-06 19:26 38.93641 -77.46070 1002 ft 172 kts 193°
2026-05-06 19:26 38.92638 -77.46799 1763 ft 166 kts 224°
2026-05-06 19:27 38.91893 -77.47927 2444 ft 166 kts 230°
2026-05-06 19:27 38.91146 -77.49116 2963 ft 175 kts 232°
2026-05-06 19:27 38.90347 -77.50398 3368 ft 195 kts 232°
2026-05-06 19:27 38.89597 -77.51945 3877 ft 211 kts 251°
2026-05-06 19:28 38.89393 -77.53843 4440 ft 230 kts 266°
2026-05-06 19:28 38.88972 -77.55871 5076 ft 244 kts 241°
2026-05-06 19:28 38.88049 -77.57741 5933 ft 246 kts 249°
2026-05-06 19:28 38.87817 -77.59770 7312 ft 225 kts 277°
2026-05-06 19:29 38.88498 -77.61573 8197 ft 238 kts 304°
2026-05-06 19:29 38.89939 -77.62867 8642 ft 274 kts 336°
2026-05-06 19:29 38.91926 -77.62922 9351 ft 303 kts
2026-05-06 19:29 38.93892 -77.61744 10101 ft 321 kts 27°
2026-05-06 19:30 38.95747 -77.59994 10317 ft 352 kts 37°
2026-05-06 19:30 38.97547 -77.57770 10846 ft 365 kts 43°
2026-05-06 19:30 38.99317 -77.55415 11568 ft 369 kts 40°
2026-05-06 19:30 39.01219 -77.53171 12290 ft 373 kts 37°
2026-05-06 19:31 39.03218 -77.51018 13012 ft 377 kts 34°
2026-05-06 19:31 39.05280 -77.48904 13747 ft 381 kts 33°
2026-05-06 19:31 39.09489 -77.44642 15017 ft 389 kts 33°
2026-05-06 19:32 39.11617 -77.42453 15712 ft 395 kts 33°
2026-05-06 19:32 39.13765 -77.40217 16516 ft 399 kts 33°
2026-05-06 19:32 39.15922 -77.37944 17223 ft 403 kts 33°
2026-05-06 19:32 39.18097 -77.35636 17841 ft 407 kts 33°
2026-05-06 19:33 39.20263 -77.33332 18419 ft 411 kts 33°
2026-05-06 19:33 39.22432 -77.30891 18940 ft 420 kts 39°
2026-05-06 19:33 39.24308 -77.27936 19454 ft 433 kts 52°
2026-05-06 19:33 39.25789 -77.24506 19958 ft 442 kts 59°
2026-05-06 19:34 39.27175 -77.20941 20469 ft 446 kts 59°
2026-05-06 19:34 39.28571 -77.17346 20985 ft 450 kts 59°
2026-05-06 19:34 39.29981 -77.13712 21465 ft 456 kts 59°
2026-05-06 19:34 39.31334 -77.09981 21961 ft 464 kts 66°
2026-05-06 19:35 39.32231 -77.05939 22400 ft 473 kts 78°
2026-05-06 19:35 39.32556 -77.01682 22847 ft 480 kts 90°
2026-05-06 19:35 39.32303 -76.97434 23290 ft 482 kts 103°
2026-05-06 19:35 39.31494 -76.93230 23687 ft 484 kts 111°
2026-05-06 19:36 39.30537 -76.89049 24087 ft 488 kts 111°
2026-05-06 19:36 39.29569 -76.84841 24481 ft 491 kts 110°
2026-05-06 19:36 39.28595 -76.80609 24894 ft 493 kts 110°
2026-05-06 19:36 39.27615 -76.76351 25280 ft 496 kts 110°
2026-05-06 19:37 39.26626 -76.72067 25622 ft 500 kts 111°
2026-05-06 19:37 39.25631 -76.67759 26018 ft 502 kts 110°
2026-05-06 19:37 39.24628 -76.63427 26390 ft 505 kts 110°
2026-05-06 19:37 39.23615 -76.59072 26758 ft 508 kts 111°
2026-05-06 19:38 39.22592 -76.54693 27115 ft 511 kts 111°
2026-05-06 19:38 39.21566 -76.50297 27462 ft 515 kts 111°
2026-05-06 19:38 39.20542 -76.45920 27831 ft 517 kts 110°
2026-05-06 19:38 39.19500 -76.41468 28186 ft 520 kts 110°
2026-05-06 19:39 39.18453 -76.36988 28548 ft 523 kts 110°
2026-05-06 19:39 39.17400 -76.32484 28877 ft 526 kts 110°
2026-05-06 19:39 39.16338 -76.27955 29206 ft 530 kts 110°
2026-05-06 19:39 39.15465 -76.23329 29524 ft 537 kts 97°
2026-05-06 19:40 39.15506 -76.18512 29836 ft 540 kts 81°
2026-05-06 19:40 39.16216 -76.13761 30088 ft 541 kts 74°
2026-05-06 19:40 39.16978 -76.09004 30391 ft 544 kts 77°
2026-05-06 19:40 39.17576 -76.04248 30670 ft 546 kts 80°
2026-05-06 19:41 39.18098 -75.99386 30952 ft 549 kts 79°
2026-05-06 19:41 39.18920 -75.94587 31189 ft 549 kts 69°
2026-05-06 19:41 39.20305 -75.90026 31421 ft 544 kts 57°
2026-05-06 19:41 39.22264 -75.85898 31662 ft 536 kts 45°
2026-05-06 19:42 39.24663 -75.82278 31937 ft 526 kts 36°
2026-05-06 19:42 39.27349 -75.79147 32296 ft 516 kts 29°
2026-05-06 19:42 39.30105 -75.76168 32646 ft 517 kts 30°
2026-05-06 19:42 39.32847 -75.73161 33001 ft 517 kts 30°
2026-05-06 19:43 39.35580 -75.70134 33351 ft 518 kts 30°
2026-05-06 19:43 39.38269 -75.67145 33794 ft 517 kts 30°
2026-05-06 19:43 39.40990 -75.64125 34175 ft 514 kts 29°
2026-05-06 19:43 39.43705 -75.61119 34514 ft 513 kts 29°
2026-05-06 19:44 39.46419 -75.58125 34826 ft 512 kts 29°
2026-05-06 19:44 39.49134 -75.55147 35127 ft 511 kts 29°
2026-05-06 19:44 39.51847 -75.52176 35418 ft 511 kts 28°
2026-05-06 19:44 39.54555 -75.49200 35705 ft 510 kts 29°
2026-05-06 19:45 39.57254 -75.46226 36034 ft 509 kts 28°
2026-05-06 19:45 39.59948 -75.43248 36332 ft 508 kts 28°
2026-05-06 19:45 39.62633 -75.40268 36595 ft 507 kts 29°
2026-05-06 19:45 39.65277 -75.37331 36822 ft 507 kts 28°
2026-05-06 19:46 39.70595 -75.31411 36867 ft 501 kts 28°
2026-05-06 19:46 39.75879 -75.25536 36867 ft 500 kts 28°
2026-05-06 19:47 39.80946 -75.19234 36873 ft 513 kts 38°
2026-05-06 19:47 39.85654 -75.12238 36869 ft 514 kts 38°
2026-05-06 19:48 39.90325 -75.05286 36831 ft 513 kts 39°
2026-05-06 19:48 39.95017 -74.98281 36906 ft 513 kts 38°
2026-05-06 19:49 39.99329 -74.90738 36891 ft 524 kts 47°
2026-05-06 19:49 40.03409 -74.82742 36872 ft 535 kts 47°
2026-05-06 19:50 40.07577 -74.74576 36855 ft 547 kts 47°
2026-05-06 19:50 40.11814 -74.66228 36866 ft 554 kts 48°
2026-05-06 19:51 40.16032 -74.57872 36838 ft 555 kts 48°
2026-05-06 19:51 40.20494 -74.49737 36844 ft 541 kts 37°
2026-05-06 19:52 40.23162 -74.46376 36854 ft 526 kts 28°
2026-05-06 19:52 40.25992 -74.43349 36858 ft 525 kts 27°
2026-05-06 19:52 40.31663 -74.37308 36845 ft 525 kts 27°
2026-05-06 19:53 40.37306 -74.31269 36851 ft 522 kts 27°
2026-05-06 19:53 40.42926 -74.25238 36860 ft 522 kts 27°
2026-05-06 19:54 40.48498 -74.19241 36889 ft 521 kts 28°
2026-05-06 19:54 40.54080 -74.13210 36836 ft 519 kts 28°
2026-05-06 19:55 40.59654 -74.07190 36832 ft 519 kts 27°
2026-05-06 19:55 40.65230 -74.01162 36849 ft 519 kts 28°
2026-05-06 19:56 40.70807 -73.95115 36855 ft 519 kts 28°
2026-05-06 19:56 40.76338 -73.89102 36833 ft 519 kts 28°
2026-05-06 19:57 40.81906 -73.83019 36823 ft 520 kts 28°
2026-05-06 19:57 40.87216 -73.76402 36865 ft 539 kts 43°
2026-05-06 19:58 40.91602 -73.68258 36846 ft 545 kts 47°
2026-05-06 19:58 40.95943 -73.60049 36822 ft 544 kts 47°
2026-05-06 19:59 41.00251 -73.51896 36839 ft 544 kts 47°
2026-05-06 19:59 41.04582 -73.43681 36867 ft 544 kts 47°
2026-05-06 20:00 41.08914 -73.35454 36868 ft 544 kts 47°
2026-05-06 20:00 41.13237 -73.27214 36859 ft 544 kts 47°
2026-05-06 20:01 41.17558 -73.18974 36903 ft 544 kts 47°
2026-05-06 20:01 41.21867 -73.10731 36851 ft 543 kts 47°
2026-05-06 20:02 41.26161 -73.02472 36850 ft 543 kts 48°
2026-05-06 20:02 41.30382 -72.94209 36825 ft 546 kts 50°
2026-05-06 20:03 41.34335 -72.85558 36894 ft 548 kts 53°
2026-05-06 20:03 41.38121 -72.76746 36875 ft 548 kts 54°
2026-05-06 20:04 41.41947 -72.67982 36885 ft 547 kts 53°
2026-05-06 20:04 41.45842 -72.59287 36860 ft 546 kts 52°
2026-05-06 20:05 41.49744 -72.50606 36868 ft 546 kts 52°
2026-05-06 20:05 41.53588 -72.41958 36868 ft 545 kts 53°
2026-05-06 20:06 41.57435 -72.33231 36872 ft 545 kts 53°
2026-05-06 20:06 41.61273 -72.24493 36864 ft 545 kts 53°
2026-05-06 20:07 41.65109 -72.15758 36885 ft 544 kts 53°
2026-05-06 20:07 41.68939 -72.07021 36881 ft 544 kts 53°
2026-05-06 20:08 41.72732 -71.98336 36879 ft 544 kts 53°
2026-05-06 20:08 41.76539 -71.89579 36866 ft 544 kts 53°
2026-05-06 20:09 41.80416 -71.80895 36906 ft 538 kts 47°
2026-05-06 20:09 41.85246 -71.73446 36898 ft 528 kts 39°
2026-05-06 20:10 41.90193 -71.66246 36903 ft 528 kts 39°
2026-05-06 20:10 41.95162 -71.58983 36895 ft 528 kts 39°
2026-05-06 20:11 42.00128 -71.51713 36870 ft 528 kts 39°
2026-05-06 20:11 42.05079 -71.44436 36883 ft 527 kts 39°
2026-05-06 20:12 42.10027 -71.37146 36907 ft 527 kts 40°
2026-05-06 20:12 42.14969 -71.29844 36888 ft 527 kts 40°
2026-05-06 20:13 42.19875 -71.22575 36870 ft 527 kts 40°
2026-05-06 20:13 42.24816 -71.15259 36867 ft 527 kts 40°
2026-05-06 20:14 42.29758 -71.07923 36857 ft 528 kts 41°
2026-05-06 20:14 42.34616 -71.00457 36845 ft 534 kts 48°
2026-05-06 20:15 42.36604 -70.96184 36846 ft 541 kts 59°
2026-05-06 20:15 42.38167 -70.91539 36834 ft 543 kts 63°
2026-05-06 20:15 42.41173 -70.82229 36878 ft 543 kts 63°
2026-05-06 20:16 42.44215 -70.72872 36873 ft 543 kts 63°
2026-05-06 20:16 42.47247 -70.63525 36870 ft 542 kts 63°
2026-05-06 20:17 42.50252 -70.54163 36867 ft 542 kts 63°
2026-05-06 20:17 42.53241 -70.44808 36909 ft 540 kts 64°
2026-05-06 20:18 42.56206 -70.35505 36845 ft 536 kts 64°
2026-05-06 20:18 42.59141 -70.26290 36866 ft 536 kts 64°
2026-05-06 20:19 42.62094 -70.16998 36873 ft 536 kts 64°
2026-05-06 20:19 42.65034 -70.07709 36886 ft 535 kts 64°
2026-05-06 20:20 42.67948 -69.98425 36900 ft 534 kts 65°
2026-05-06 20:20 42.70850 -69.89141 36902 ft 533 kts 65°
2026-05-06 20:21 42.73750 -69.79868 36881 ft 532 kts 65°
2026-05-06 20:21 42.76624 -69.70678 36906 ft 531 kts 65°
2026-05-06 20:22 42.79497 -69.61422 36896 ft 530 kts 66°
2026-05-06 20:22 42.82356 -69.52176 36867 ft 530 kts 66°
2026-05-06 20:23 42.85201 -69.42925 36903 ft 529 kts 66°
2026-05-06 20:23 42.88037 -69.33680 36916 ft 529 kts 66°
2026-05-06 20:24 42.90850 -69.24492 36928 ft 528 kts 66°
2026-05-06 20:24 42.93674 -69.15240 36906 ft 528 kts 66°
2026-05-06 20:25 42.96488 -69.05989 36928 ft 527 kts 66°
2026-05-06 20:25 42.99291 -68.96743 36939 ft 527 kts 66°
2026-05-06 20:26 43.02081 -68.87486 36945 ft 527 kts 66°
2026-05-06 20:26 43.04845 -68.78300 36928 ft 526 kts 66°
2026-05-06 20:27 43.07607 -68.69055 36936 ft 525 kts 66°
2026-05-06 20:27 43.10368 -68.59804 36948 ft 525 kts 66°
2026-05-06 20:28 43.13119 -68.50548 36971 ft 525 kts 67°
2026-05-06 20:28 43.15865 -68.41290 36969 ft 524 kts 67°
2026-05-06 20:29 43.18584 -68.32098 36941 ft 524 kts 67°
2026-05-06 20:29 43.21303 -68.22839 36964 ft 523 kts 67°
2026-05-06 20:30 43.25359 -68.08985 36944 ft 515 kts 68°
2026-05-06 20:31 43.27534 -68.01537 36960 ft 500 kts 68°
2026-05-06 20:31 43.30517 -67.91276 36956 ft 497 kts 68°
2026-05-06 20:32 43.33069 -67.82457 36960 ft 497 kts 68°
2026-05-06 20:32 43.35617 -67.73634 36960 ft 497 kts 67°
2026-05-06 20:33 43.37729 -67.66293 36971 ft 497 kts 68°
2026-05-06 20:33 43.40668 -67.56017 36965 ft 497 kts 68°
2026-05-06 20:34 43.43192 -67.47179 36965 ft 497 kts 68°
2026-05-06 20:34 43.45288 -67.39829 36969 ft 496 kts 68°
2026-05-06 20:35 43.47794 -67.30973 36976 ft 496 kts 68°
2026-05-06 20:35 43.50694 -67.20677 36983 ft 496 kts 68°
2026-05-06 20:36 43.52767 -67.13319 36982 ft 496 kts 68°
2026-05-06 20:36 43.55254 -67.04469 36979 ft 495 kts 68°
2026-05-06 20:37 43.57779 -66.95636 36969 ft 495 kts 66°
2026-05-06 20:37 43.60539 -66.86943 36991 ft 494 kts 64°
2026-05-06 20:38 43.63375 -66.78297 36970 ft 494 kts 65°
2026-05-06 20:38 43.66127 -66.69673 36976 ft 494 kts 65°
2026-05-06 20:39 43.68852 -66.60956 36977 ft 494 kts 65°
2026-05-06 20:39 43.71562 -66.52230 37008 ft 494 kts 66°
2026-05-06 20:40 43.74277 -66.43492 37012 ft 495 kts 66°
2026-05-06 20:40 43.76979 -66.34804 37022 ft 495 kts 66°
2026-05-06 20:41 43.79697 -66.26049 37018 ft 495 kts 66°
2026-05-06 20:41 43.82399 -66.17293 37001 ft 494 kts 65°
2026-05-06 20:42 43.85088 -66.08545 37036 ft 493 kts 65°
2026-05-06 20:42 43.87747 -65.99864 37040 ft 492 kts 65°
2026-05-06 20:43 43.90410 -65.91130 37043 ft 492 kts 65°
2026-05-06 20:43 43.93072 -65.82400 37043 ft 491 kts 65°
2026-05-06 20:44 43.95728 -65.73669 37072 ft 491 kts 66°
2026-05-06 20:44 43.97051 -65.69297 36840 ft 492 kts 66°
2026-05-06 20:44 43.98380 -65.64897 36139 ft 494 kts 66°
2026-05-06 20:44 43.99689 -65.60552 35293 ft 498 kts 66°
2026-05-06 20:45 44.01022 -65.56118 34779 ft 495 kts 66°
2026-05-06 20:45 44.02343 -65.51714 34204 ft 493 kts 66°
2026-05-06 20:45 44.03658 -65.47322 33579 ft 491 kts 67°
2026-05-06 20:45 44.04967 -65.42956 33028 ft 487 kts 67°
2026-05-06 20:46 44.06267 -65.38619 32461 ft 485 kts 67°
2026-05-06 20:46 44.07558 -65.34305 31908 ft 482 kts 67°
2026-05-06 20:46 44.08839 -65.30012 31354 ft 479 kts 67°
2026-05-06 20:46 44.10093 -65.25799 30827 ft 477 kts 67°
2026-05-06 20:47 44.11355 -65.21541 30295 ft 475 kts 68°
2026-05-06 20:47 44.12611 -65.17304 29737 ft 472 kts 68°
2026-05-06 20:47 44.13856 -65.13100 29209 ft 467 kts 68°
2026-05-06 20:47 44.15085 -65.08945 28746 ft 461 kts 69°
2026-05-06 20:48 44.16297 -65.04829 28258 ft 457 kts 69°
2026-05-06 20:48 44.17495 -65.00752 27779 ft 454 kts 69°
2026-05-06 20:48 44.18685 -64.96701 27289 ft 450 kts 70°
2026-05-06 20:48 44.19851 -64.92727 26793 ft 448 kts 70°
2026-05-06 20:49 44.21028 -64.88720 26274 ft 446 kts 70°
2026-05-06 20:49 44.22200 -64.84722 25757 ft 445 kts 70°
2026-05-06 20:49 44.23364 -64.80737 25345 ft 441 kts 70°
2026-05-06 20:49 44.24522 -64.76766 24797 ft 442 kts 71°
2026-05-06 20:50 44.25669 -64.72833 24471 ft 436 kts 71°
2026-05-06 20:50 44.26807 -64.68922 24008 ft 434 kts 71°
2026-05-06 20:50 44.27936 -64.65030 23570 ft 431 kts 71°
2026-05-06 20:50 44.29043 -64.61209 23078 ft 429 kts 71°
2026-05-06 20:51 44.30157 -64.57356 22593 ft 427 kts 72°
2026-05-06 20:51 44.31261 -64.53532 22135 ft 422 kts 71°
2026-05-06 20:51 44.32355 -64.49748 21710 ft 419 kts 71°
2026-05-06 20:51 44.33440 -64.45992 21268 ft 416 kts 71°
2026-05-06 20:52 44.34517 -64.42261 20813 ft 413 kts 72°
2026-05-06 20:52 44.35583 -64.38552 20350 ft 410 kts 72°
2026-05-06 20:52 44.36641 -64.34865 19920 ft 407 kts 72°
2026-05-06 20:52 44.37692 -64.31201 19496 ft 405 kts 72°
2026-05-06 20:53 44.38720 -64.27605 19079 ft 402 kts 72°
2026-05-06 20:53 44.39752 -64.23986 18675 ft 400 kts 72°
2026-05-06 20:53 44.40778 -64.20384 18251 ft 398 kts 72°
2026-05-06 20:53 44.41820 -64.16814 17776 ft 396 kts 68°
2026-05-06 20:54 44.43173 -64.13478 17092 ft 393 kts 60°
2026-05-06 20:54 44.44603 -64.10236 16390 ft 389 kts 60°
2026-05-06 20:54 44.46020 -64.07028 15740 ft 385 kts 60°
2026-05-06 20:54 44.47423 -64.03852 15092 ft 382 kts 59°
2026-05-06 20:55 44.48783 -64.00773 14533 ft 379 kts 59°
2026-05-06 20:55 44.50162 -63.97644 14181 ft 375 kts 59°
2026-05-06 20:55 44.51534 -63.94527 13769 ft 374 kts 59°
2026-05-06 20:55 44.52885 -63.91455 13465 ft 367 kts 59°
2026-05-06 20:56 44.54222 -63.88407 12947 ft 368 kts 59°
2026-05-06 20:56 44.55553 -63.85364 12602 ft 363 kts 60°
2026-05-06 20:56 44.56873 -63.82341 12179 ft 362 kts 60°
2026-05-06 20:56 44.58182 -63.79342 11708 ft 361 kts 60°
2026-05-06 20:57 44.59483 -63.76358 11331 ft 358 kts 60°
2026-05-06 20:57 44.60759 -63.73429 10974 ft 355 kts 60°
2026-05-06 20:57 44.62048 -63.70472 10594 ft 353 kts 60°
2026-05-06 20:57 44.63329 -63.67532 10189 ft 351 kts 60°
2026-05-06 20:58 44.64593 -63.64626 9894 ft 346 kts 60°
2026-05-06 20:58 44.65826 -63.61792 9742 ft 335 kts 60°
2026-05-06 20:58 44.67034 -63.59017 9424 ft 331 kts 60°
2026-05-06 20:58 44.68466 -63.56495 9063 ft 330 kts 45°
2026-05-06 20:59 44.70264 -63.54503 8672 ft 329 kts 34°
2026-05-06 20:59 44.72109 -63.52697 8280 ft 327 kts 35°
2026-05-06 20:59 44.73967 -63.50868 7882 ft 325 kts 35°
2026-05-06 20:59 44.75815 -63.49044 7464 ft 323 kts 36°
2026-05-06 21:00 44.77643 -63.47238 6883 ft 320 kts 36°
2026-05-06 21:00 44.79461 -63.45442 6231 ft 318 kts 36°
2026-05-06 21:00 44.81270 -63.43650 5550 ft 318 kts 36°
2026-05-06 21:00 44.83039 -63.41897 5278 ft 302 kts 36°
2026-05-06 21:01 44.84702 -63.40254 5148 ft 282 kts 36°
2026-05-06 21:01 44.86267 -63.38712 5031 ft 268 kts 36°
2026-05-06 21:01 44.87735 -63.37264 4892 ft 264 kts 36°
2026-05-06 21:01 44.89211 -63.35802 4752 ft 268 kts 37°
2026-05-06 21:02 44.90649 -63.34373 4610 ft 268 kts 36°
2026-05-06 21:02 44.92171 -63.32858 4468 ft 268 kts 36°
2026-05-06 21:02 44.93692 -63.31343 4326 ft 268 kts 37°
2026-05-06 21:02 44.95242 -63.29881 4173 ft 269 kts 26°
2026-05-06 21:03 44.97017 -63.29338 4032 ft 256 kts 349°
2026-05-06 21:03 44.98621 -63.30012 3839 ft 232 kts 318°
2026-05-06 21:03 44.99725 -63.31454 3613 ft 211 kts 294°
2026-05-06 21:03 45.00558 -63.33136 3411 ft 208 kts 293°
2026-05-06 21:04 45.01353 -63.34806 3204 ft 197 kts 283°
2026-05-06 21:04 45.01585 -63.36522 3039 ft 166 kts 255°
2026-05-06 21:04 45.01226 -63.37948 2872 ft 146 kts 231°
2026-05-06 21:04 45.00543 -63.38886 2760 ft 136 kts 214°
2026-05-06 21:05 44.99740 -63.39669 2664 ft 141 kts 215°
2026-05-06 21:05 44.98935 -63.40467 2536 ft 142 kts 215°
2026-05-06 21:05 44.98130 -63.41266 2417 ft 141 kts 215°
2026-05-06 21:05 44.97366 -63.42025 2307 ft 126 kts 214°
2026-05-06 21:06 44.96668 -63.42720 2258 ft 123 kts 214°
2026-05-06 21:06 44.95978 -63.43406 2146 ft 121 kts 214°
2026-05-06 21:06 44.95293 -63.44086 2014 ft 120 kts 214°
2026-05-06 21:06 44.94611 -63.44762 1861 ft 120 kts 215°
2026-05-06 21:07 44.93928 -63.45439 1706 ft 120 kts 214°
2026-05-06 21:07 44.93247 -63.46114 1543 ft 120 kts 215°
2026-05-06 21:07 44.92567 -63.46788 1380 ft 122 kts 213°
2026-05-06 21:07 44.91877 -63.47471 1224 ft 119 kts 213°
2026-05-06 21:08 44.91194 -63.48147 1060 ft 122 kts 214°
2026-05-06 21:08 44.90516 -63.48831 906 ft 119 kts 211°
2026-05-06 21:08 44.89837 -63.49485 749 ft 120 kts 207°
2026-05-06 21:08 44.89153 -63.50171 579 ft 124 kts 210°
2026-05-06 21:09 44.88464 -63.50847 462 ft 112 kts 210°
2026-05-06 21:09 44.87892 -63.51413 451 ft 85 kts 214°
2026-05-06 21:09 44.87587 -63.51717 451 ft 41 kts 215°
2026-05-06 21:09 44.87459 -63.51901 449 ft 23 kts 249°
2026-05-06 21:10 44.87455 -63.52064 451 ft 14 kts 292°
2026-05-06 21:10 44.87515 -63.52121 452 ft 10 kts 17°
2026-05-06 21:10 44.87578 -63.52057 452 ft 12 kts 36°
2026-05-06 21:10 44.87649 -63.51985 452 ft 13 kts 36°
2026-05-06 21:11 44.87725 -63.51909 452 ft 14 kts 35°
2026-05-06 21:11 44.87808 -63.51829 452 ft 15 kts 35°
2026-05-06 21:11 44.87895 -63.51743 452 ft 16 kts 35°
2026-05-06 21:11 44.87987 -63.51653 451 ft 16 kts 34°
2026-05-06 21:12 44.88082 -63.51558 452 ft 17 kts 36°
2026-05-06 21:12 44.88182 -63.51458 452 ft 18 kts 34°
2026-05-06 21:12 44.88285 -63.51357 452 ft 18 kts 37°
2026-05-06 21:12 44.88374 -63.51262 452 ft 11 kts 39°
2026-05-06 21:13 44.88441 -63.51205 452 ft 12 kts 15°
2026-05-06 21:13 44.88500 -63.51214 452 ft 4 kts 349°
2026-05-06 21:13 44.88519 -63.51240 452 ft 4 kts 285°
2026-05-06 21:13 44.88515 -63.51289 452 ft 6 kts 260°
2026-05-06 21:14 44.88509 -63.51342 452 ft 3 kts 260°
2026-05-06 21:14 44.88508 -63.51350 452 ft 0 kts 260°